TimeEDT,TemperatureF,Dew PointF,Humidity,Sea Level PressureIn,VisibilityMPH,Wind Direction,Wind SpeedMPH,Gust SpeedMPH,PrecipitationIn,Events,Conditions,WindDirDegrees,DateUTC
12:53 AM,54.0,50.0,86,30.02,10.0,Calm,Calm,-,N/A,,Clear,0,2013-06-16 04:53:00
1:53 AM,61.0,46.9,60,30.00,10.0,Variable,4.6,-,0.00,,Scattered Clouds,0,2013-06-16 05:53:00
2:53 AM,57.0,50.0,77,29.97,10.0,SSE,4.6,-,0.00,Rain,Light Rain,160,2013-06-16 06:53:00
3:53 AM,59.0,50.0,72,29.95,10.0,Calm,Calm,-,0.00,,Overcast,0,2013-06-16 07:53:00
4:53 AM,59.0,48.9,69,29.96,10.0,South,4.6,-,0.00,Rain,Light Rain,190,2013-06-16 08:53:00
5:53 AM,59.0,50.0,72,29.93,10.0,South,4.6,-,0.00,,Overcast,180,2013-06-16 09:53:00
6:53 AM,59.0,50.0,72,29.93,10.0,SSW,4.6,-,N/A,,Overcast,200,2013-06-16 10:53:00
7:51 AM,59.0,53.6,82,29.95,3.0,SSW,8.1,-,0.03,Rain,Heavy Rain,210,2013-06-16 11:51:00
7:53 AM,59.0,53.1,81,29.91,2.0,SSW,4.6,-,0.04,Rain,Heavy Rain,210,2013-06-16 11:53:00
8:00 AM,57.9,54.0,87,29.94,1.5,South,5.8,-,0.02,Rain,Rain,190,2013-06-16 12:00:00
8:03 AM,57.0,54.0,89,29.94,2.0,Variable,5.8,-,0.03,Rain,Rain,0,2013-06-16 12:03:00
8:10 AM,57.0,54.0,89,29.93,5.0,Variable,5.8,-,0.03,Rain,Light Rain,0,2013-06-16 12:10:00
8:38 AM,57.9,55.0,90,29.91,5.0,South,9.2,-,0.03,,Overcast,190,2013-06-16 12:38:00
8:53 AM,57.9,55.9,93,29.87,4.0,South,8.1,-,0.03,,Overcast,170,2013-06-16 12:53:00
9:53 AM,61.0,57.0,87,29.87,6.0,SSW,10.4,20.7,N/A,,Overcast,210,2013-06-16 13:53:00
10:12 AM,61.0,57.0,87,29.88,5.0,SSW,8.1,-,N/A,,Overcast,210,2013-06-16 14:12:00
10:53 AM,62.1,57.9,86,29.83,4.0,Variable,6.9,18.4,N/A,,Overcast,0,2013-06-16 14:53:00
11:53 AM,64.0,59.0,84,29.84,7.0,WSW,8.1,-,N/A,,Overcast,250,2013-06-16 15:53:00
12:32 PM,66.0,59.0,78,29.86,10.0,WSW,10.4,20.7,N/A,,Overcast,250,2013-06-16 16:32:00
12:53 PM,66.0,59.0,78,29.84,10.0,WSW,11.5,20.7,N/A,,Overcast,250,2013-06-16 16:53:00
1:53 PM,66.9,59.0,76,29.83,10.0,West,9.2,24.2,N/A,,Overcast,260,2013-06-16 17:53:00
2:53 PM,72.0,59.0,64,29.83,10.0,WNW,16.1,27.6,0.00,,Mostly Cloudy,290,2013-06-16 18:53:00
3:11 PM,70.0,59.0,68,29.88,10.0,WNW,20.7,32.2,N/A,,Overcast,290,2013-06-16 19:11:00
3:53 PM,71.1,57.9,63,29.85,10.0,WNW,17.3,29.9,N/A,,Overcast,290,2013-06-16 19:53:00
4:53 PM,71.1,59.0,66,29.86,10.0,NW,10.4,-,N/A,,Mostly Cloudy,310,2013-06-16 20:53:00
5:07 PM,72.0,57.9,61,29.89,10.0,WNW,11.5,21.9,N/A,,Mostly Cloudy,300,2013-06-16 21:07:00
5:15 PM,71.1,59.0,66,29.90,10.0,NW,12.7,19.6,N/A,,Mostly Cloudy,320,2013-06-16 21:15:00
5:25 PM,71.1,59.0,66,29.90,10.0,WNW,13.8,-,N/A,,Mostly Cloudy,300,2013-06-16 21:25:00
5:40 PM,71.1,57.9,63,29.90,10.0,WNW,10.4,-,N/A,,Overcast,290,2013-06-16 21:40:00
5:50 PM,71.6,57.2,60,29.90,10.0,West,15.0,23.0,N/A,,Mostly Cloudy,280,2013-06-16 21:50:00
5:53 PM,72.0,57.0,59,29.87,10.0,West,13.8,23.0,N/A,,Scattered Clouds,280,2013-06-16 21:53:00
6:53 PM,72.0,57.9,61,29.88,10.0,WNW,9.2,-,N/A,,Scattered Clouds,290,2013-06-16 22:53:00
7:53 PM,70.0,57.9,65,29.89,10.0,WNW,10.4,-,N/A,,Clear,290,2013-06-16 23:53:00
8:53 PM,68.0,57.9,70,29.91,10.0,West,5.8,-,N/A,,Clear,280,2013-06-17 00:53:00
9:53 PM,64.9,57.9,78,29.92,10.0,Calm,Calm,-,N/A,,Clear,0,2013-06-17 01:53:00
10:53 PM,59.0,55.9,90,29.93,8.0,Calm,Calm,-,N/A,,Clear,0,2013-06-17 02:53:00
11:44 PM,57.0,55.0,93,29.94,2.5,Calm,Calm,-,N/A,,Clear,0,2013-06-17 03:44:00
11:53 PM,57.0,55.0,93,29.92,6.0,Calm,Calm,-,N/A,,Clear,0,2013-06-17 03:53:00